Regional Weather Roundup
Issued by NWS Cleveland, OH

Home | Current Version | Previous Version | Graphics & Text | Print | Product List | Glossary Off
Versions: 1 2 3 4 5 6 7 8 9 10 11 12 13 14 15 16 17 18 19 20 21 22 23 24 25 26 27 28 29 30 31 32 33 34 35 36 37 38 39 40 41 42 43 44 45 46 47 48 49 50

000
ASUS41 KCLE 300710
RWRCLE
OHIO REGIONAL WEATHER ROUNDUP
NATIONAL WEATHER SERVICE WILMINGTON, OH
300 AM EDT MON MAR 30 2015

NOTE: "FAIR" INDICATES FEW OR NO CLOUDS BELOW 12,000 FEET WITH NO
SIGNIFICANT WEATHER AND/OR OBSTRUCTIONS TO VISIBILITY.

OHZ001>008-015>018-024>027-034-035-043-044-300800-
   NORTHWEST OHIO

CITY           SKY/WX    TMP DP  RH WIND       PRES   REMARKS
DEFIANCE       CLOUDY    44  32  62 W8G17     29.88R
FINDLAY        MOCLDY    43  33  68 W15       29.86R
TOLEDO EXPRESS CLOUDY    42  31  64 W16G23    29.84R
TOLEDO EXEC    CLOUDY    43  31  62 W22G28    29.84R
LIMA           MOCLDY    44  34  67 W17       29.89R
$$

OHZ009>014-019>023-028>033-038-089-300800-
   NORTHEAST OHIO

CITY           SKY/WX    TMP DP  RH WIND       PRES   REMARKS
CLE-HOPKINS    CLOUDY    43  36  76 SW25G33   29.82S
CLE-LAKEFRONT  CLOUDY    43  35  73 SW21G30   29.78F
CUY CO. ARPT   NOT AVBL
LORAIN-ELYRIA  CLOUDY    42  35  76 W20G26    29.81S
ASHTABULA      CLOUDY    37  34  89 SW15      29.77F
AKRON-CANTON   LGT RAIN  39  35  86 SW14      29.82F FOG
WOOSTER        CLOUDY    39  36  89 SW10      29.83F
MANSFIELD      CLOUDY    42  36  79 W14G23    29.83R
YOUNGSTOWN     LGT RAIN  37  35  92 SW15      29.81F FOG
$$

OHZ042-051>053-060>062-070>072-077>081-300800-
  SOUTHWEST OHIO

CITY           SKY/WX    TMP DP  RH WIND       PRES   REMARKS
CINC-COVINGTON CLOUDY    47  41  80 SW10      29.97S
CINC-LUNKEN    CLOUDY    47  42  83 SW9       29.98S
HAMILTON       CLOUDY    48  42  80 W9        29.97R
DAYTON         CLOUDY    46  40  79 W16G26    29.94R
WRIGHT-PAT AFB MOCLDY    46  41  82 W13G21    29.92R
DAYTON GENERAL CLOUDY    47  41  80 W13G18    29.93R
WILMINGTON     CLOUDY    43  39  86 W14       29.93S
$$

OHZ036-037-039>041-045>050-054>059-063>069-073>076-082>088-300800-
  CENTRAL AND SOUTHEAST OHIO

CITY           SKY/WX    TMP DP  RH WIND       PRES   REMARKS
COLUMBUS       CLOUDY    41  37  87 SW9       29.90S
OSU AIRPORT    CLOUDY    45  39  79 W12       29.89S
BOLTON FIELD   CLOUDY   N/A N/A N/A SW13      29.90S
RICKENBACK AFB CLOUDY    40  37  87 SW9       29.91S
NEWARK         CLOUDY    43  38  82 W14       29.88F
MARION         MOCLDY    44  36  73 W20G29    29.88R
LANCASTER      CLOUDY    43  38  82 SW14G22   29.91S
ZANESVILLE     LGT RAIN  42  33  70 SW10      29.88F
NEW PHILLY     LGT RAIN  43  37  79 SW8       29.86F
$$


USA.gov is the U.S. government's official web portal to all federal, state and local government web resources and services.